Location: downtown San Diego
(32.7310°N, 117.1990°W)
Time: 10:40:49
(UTC-07:00)

Daily predictions for brighter satellites

Satellite Brightness Start Highest point End
(mag) Time Altitude Azimuth Time Altitude Azimuth Time Altitude Azimuth
Cosmos 2279 Rocket 4.0 20:17:05 10° S 20:23:13 69° E 20:29:21 10° NNE
Cosmos 2058 Rocket 3.1 20:19:43 10° N 20:24:08 77° E 20:28:30 10° S
NOSS 2-3 (E) 3.6 20:25:53 10° SSW 20:30:17 70° ESE 20:35:09 10° NE
Cosmos 2263 Rocket 2.2 20:26:03 10° SSW 20:31:42 72° ESE 20:37:22 10° NNE
Cosmos 1603 3.8 20:31:39 10° NNW 20:37:21 67° ENE 20:43:03 10° SSE
YAOGAN 6 2.7 20:35:46 10° S 20:39:19 76° WSW 20:42:51 10° NNW
Cosmos 2228 3.7 20:35:15 10° NNW 20:39:34 58° W 20:43:52 10° S
ASTRO E2 4.4 20:36:36 10° WSW 20:39:37 21° SSW 20:42:38 10° SSE
ATLAS 2AS CENTAUR R/B 3.8 20:34:03 10° SSE 20:40:06 26° ESE 20:46:25 10° NE
Cosmos 1707 3.1 20:36:38 10° SSE 20:40:19 43° E 20:43:59 10° NNE
Cosmos 1953 2.7 20:36:38 10° N 20:40:27 44° E 20:44:17 10° SSE
Envisat 4.0 20:35:56 10° S 20:40:49 47° W 20:45:43 10° NNW
Cosmos 2180 Rocket 4.5 20:34:42 10° S 20:40:53 78° E 20:47:03 10° N
SJ-11-01 4.4 20:40:03 10° SSE 20:44:43 62° ENE 20:49:25 10° N
Cosmos 1655 Rocket 4.0 20:38:53 10° N 20:45:09 71° E 20:51:20 10° SSE
Cosmos 972 Rocket 4.2 20:42:32 10° SSW 20:47:28 73° WNW 20:52:22 10° N
Iridium 4 Rocket 4.5 20:48:50 10° SSE 20:53:57 34° E 20:58:51 10° NNE
Hubble Space Telescope 1.7 20:51:12 10° WSW 20:54:57 34° SSW 20:57:42 16° SE
Cosmos 1378 3.5 20:51:19 10° SSW 20:55:00 66° W 20:58:42 10° N
Lacrosse 5 2.0 20:53:08 10° SSW 20:58:01 50° ESE 21:02:53 10° NE
Cosmos 1238 Rocket 4.0 21:02:35 15° E 21:02:35 15° E 21:04:15 10° NE
Cosmos 1400 Rocket 2.7 21:00:30 10° S 21:04:33 78° E 21:08:35 10° N
Cosmos 2266 Rocket 4.3 20:59:56 10° N 21:06:09 52° E 21:11:20 15° SSE
USA 186 3.7 21:03:14 10° SSW 21:06:11 28° W 21:09:03 10° NW
CZ-3 Stage 3 3.1 21:03:31 10° WSW 21:06:32 66° SSE 21:18:38 10° E
Aureole 1 Rocket 2.4 21:07:10 14° S 21:09:32 47° ESE 21:12:45 10° NNE
BREEZE-M R/B 2.5 21:09:39 10° NW 21:12:39 45° NE 21:13:38 27° E
USA 215 3.3 21:09:21 16° SE 21:14:45 82° SW 21:21:20 10° NW
Cosmos 468 4.5 21:10:35 10° S 21:15:53 80° ESE 21:21:14 10° NNE
Spot 2 Rocket 3.5 21:11:32 11° SSE 21:16:19 83° WSW 21:21:24 10° NNW
Cosmos 1452 Rocket 3.8 21:11:30 10° N 21:16:38 50° ENE 21:19:48 22° SE
Cosmos 1420 Rocket 4.4 21:14:59 10° N 21:19:58 46° ENE 21:22:46 24° SE
Cosmos 2056 Rocket 4.3 21:15:56 10° NNW 21:20:55 49° WSW 21:25:56 10° S
Cosmos 1943 3.2 21:15:37 10° NNW 21:21:18 89° WSW 21:25:24 19° SSE
ERS-2 2.9 21:19:30 13° S 21:22:39 50° WSW 21:26:14 10° NNW
H-2A R/B 2.5 21:23:43 24° SE 21:26:33 46° ENE 21:31:39 10° N
Cosmos 1470 3.8 21:23:15 10° NNW 21:26:59 45° W 21:30:34 11° SSW
Aurora 2 Rocket 4.5 21:22:25 10° SW 21:28:39 36° SSE 21:34:17 19° ESE
SL-8 R/B 3.6 21:30:24 10° SW 21:35:12 71° SE 21:40:01 10° NE
ARGOS 3.1 21:33:07 24° SSE 21:36:24 74° ENE 21:41:49 10° N
Cosmos 1607 3.9 21:32:22 10° NNW 21:38:45 86° WSW 21:42:21 27° SSE
Cosmos 1844 4.2 21:36:34 27° SSE 21:38:49 39° ESE 21:44:05 10° NE
OAO 3 Rocket 3.3 21:34:12 10° W 21:39:09 77° N 21:43:15 15° ENE
Meteor 1-24 Rocket 3.9 21:35:05 18° S 21:39:35 66° E 21:45:34 10° NNE
Cosmos 1269 Rocket 3.9 21:36:29 13° S 21:41:15 71° ESE 21:46:32 10° NNE
Cosmos-2242 3.8 21:38:03 10° NNE 21:42:04 34° E 21:42:44 32° E
Cosmos 1437 4.1 21:39:36 10° NNE 21:41:49 25° ENE 21:41:49 25° ENE
DMSP B5D2-2 4.2 21:39:04 10° NNE 21:44:10 51° E 21:46:13 32° SSE
Resurs 01 Rocket 3.6 21:40:45 10° SSW 21:44:21 25° W 21:47:58 10° NW
Cosmos 1844 Rocket 2.7 21:40:46 16° S 21:45:12 61° ESE 21:50:46 10° NNE
Meteor 2-5 Rocket 4.1 21:39:44 10° SSW 21:45:38 71° W 21:51:35 10° N
Cosmos 1953 Rocket 3.5 21:47:01 27° S 21:49:21 86° W 21:53:43 10° N
SL-08 RB Rocket 3.7 21:48:10 38° SSE 21:49:57 79° ENE 21:54:38 10° N
MetOp-A 4.1 21:48:11 28° S 21:51:05 84° WSW 21:56:28 10° NNW
Cosmos 1758 Rocket 4.1 21:51:45 16° SSW 21:55:09 57° W 21:59:31 10° N
Cosmos 1932 4.4 21:51:09 10° NNW 21:57:21 74° ENE 21:59:48 38° SE
Cosmos 494 Rocket 4.0 21:58:53 42° SSE 22:00:23 58° ESE 22:05:33 10° NNE
USA 245 4.4 21:59:22 37° SSE 22:01:50 77° ENE 22:08:12 10° N
Cosmos 1908 4.1 21:59:42 10° NNE 22:02:47 35° ENE 22:02:47 35° ENE
Helios 1A 3.5 22:03:30 41° ENE 22:03:35 41° ENE 22:07:31 10° N
Terra 3.2 22:06:06 24° ENE 22:06:19 24° ENE 22:10:07 10° NNE
Cosmos 1417 Rocket 4.5 22:07:01 36° SSE 22:09:43 72° E 22:16:02 10° N
Cosmos 1315 Rocket 4.4 22:07:59 14° SW 22:10:54 33° WNW 22:14:35 10° NNW
ATLAS 3B R/B 4.1 22:08:12 10° N 22:13:27 24° NE 22:16:10 19° E
Cosmos 2251 Rocket 4.3 22:14:09 35° E 22:14:09 35° E 22:18:23 10° NE
Centaur D-1A AC-35 4.1 22:18:55 10° WSW 22:19:56 15° SW 22:19:56 15° SW
Helios 1B rocket 2.6 22:22:01 10° NNE 22:25:29 61° NE 22:25:29 61° NE
ERS-1 Rocket 3.4 22:26:48 44° SSW 22:28:02 57° W 22:32:59 10° NNW
Cosmos 1340 4.1 22:26:11 10° N 22:28:30 30° NE 22:28:30 30° NE
SPOT 5 2.8 22:29:16 71° S 22:29:50 89° WSW 22:35:01 10° NNW
ATLAS 2AS CENTAUR R/B 3.5 22:22:58 10° SW 22:30:32 59° WNW 22:38:32 10° NNE
Cosmos 1745 Rocket 4.1 22:24:23 10° N 22:30:34 55° E 22:31:27 51° ESE
Cosmos 2221 4.5 22:28:00 10° NNE 22:30:02 19° NE 22:30:02 19° NE
OAO 3 Copernicus 4.1 22:27:26 10° WNW 22:32:31 89° NNE 22:32:45 82° E
Cosmos 1674 3.7 22:35:38 41° W 22:35:39 41° W 22:39:17 10° N
CZ-2C R/B 3.4 22:32:02 10° NNE 22:36:06 36° ENE 22:36:06 36° ENE
Cosmos 921 Rocket 3.2 22:34:36 10° NNW 22:38:39 72° N 22:38:39 72° N
Meteor 1-21 Rocket 4.2 22:38:37 67° SE 22:39:13 72° E 22:45:03 10° NNE
SL-08 R/B 4.3 22:33:53 10° N 22:40:03 86° E 22:41:10 63° SSE
Lacrosse 5 4.2 22:37:08 10° W 22:41:10 23° NW 22:45:12 10° NNE
CARTOSAT-1 4.0 22:50:26 58° N 22:50:26 58° N 22:53:56 10° N
S3M 4.2 22:49:12 44° SSW 22:51:11 67° W 22:57:32 10° N
Cosmos 2278 Rocket 2.1 23:02:13 81° NE 23:02:13 81° NE 23:07:37 10° NNE
Meteor 2-13 Rocket 4.3 22:57:59 10° N 23:04:04 87° W 23:04:23 81° SSW
Cosmos 1709 Rocket 4.3 22:58:19 10° N 23:04:06 49° ENE 23:04:06 49° ENE
SPOT 1/Viking Rocket 4.4 23:05:10 39° WSW 23:05:24 40° W 23:10:13 10° NNW
Nimbus 7 Rocket 4.4 22:59:37 10° N 23:05:38 78° WNW 23:06:25 67° SW
H-2A R/B 4.2 23:04:20 14° WSW 23:06:10 17° W 23:09:32 10° NW
NOSS 3-4 (A) 3.3 23:07:37 86° S 23:07:45 88° ESE 23:14:05 10° NNE
NOSS 3-4 (C) 3.3 23:07:46 86° SE 23:07:51 87° ESE 23:14:10 10° NNE
Cosmos 1726 4.1 23:05:23 10° NNW 23:07:31 27° NW 23:07:31 27° NW
Cosmos 1461 4.4 23:10:41 37° NNE 23:10:41 37° NNE 23:13:35 10° NNE
COSMOS 2406 3.2 23:07:15 10° NNW 23:12:43 79° NW 23:12:43 79° NW
OAO 3 Rocket 4.4 23:18:00 10° WNW 23:21:04 37° WNW 23:21:04 37° WNW
Cosmos 2315 Rocket 3.9 23:26:33 86° NW 23:26:33 86° NW 23:32:48 10° N
ADEOS Rocket 4.1 23:26:06 10° NNE 23:30:03 32° ENE 23:30:03 32° ENE
USA 234 4.4 23:30:13 10° NE 23:33:36 29° ENE 23:33:36 29° ENE
CZ-2C R/B 4.1 23:41:03 44° W 23:41:03 44° W 23:46:13 10° NNW
Terra 3.6 23:45:00 25° WNW 23:45:00 25° WNW 23:47:56 10° NW
Mayak 1.2 23:43:15 10° NNE 23:44:19 17° NNE 23:44:19 17° NNE
ATLAS 5 CENTAUR R/B 3.4 23:55:30 31° N 23:55:30 31° N 23:58:13 10° NNE
ATLAS 3B CENTAUR R/B 4.5 23:44:02 10° WSW 23:50:35 28° SW 23:50:35 28° SW
